Location: Arran
(51.9410°N, 101.7372°W)
Time: 07:15:30
(UTC+00:00)

SWISSCUBE - Pass Details

Date: 18 May 2025
Orbit: 685 x 693 km, 98.4° (Epoch: 20 June)

Event Time Altitude Azimuth Distance (km) Brightness Sun altitude
Rises 07:51:50 0° 2° (N) 3,077 ? -16.9°
Reaches altitude 10° 07:55:24 10° 334° (NNW) 2,156 ? -16.7°
Maximum altitude 07:57:17 12° 310° (NW) 1,995 ? -16.6°
Drops below altitude 10° 07:59:11 10° 286° (WNW) 2,153 ? -16.5°
Enters shadow 08:01:49 - 263° (W) 2,780 ? -16.4°
